Torrington, WY

1:37 AM MST on February 25, 2018 (GMT -0700)
Torrington Municipal

Weather History for KTOR - July, 2013

Change the Weather History Date:

Thursday, July 11, 2013

  Actual Average Record
Temperature  
Mean Temperature 80 °F 74 °F  
Max Temperature 100 °F 90 °F 100 °F (2004)
Min Temperature 60 °F 58 °F 53 °F (2002)
Degree Days  
Heating Degree Days 0 0  
Month to date heating degree days 0 0  
Since 1 June heating degree days 34 75  
Since 1 July heating degree days 0 0  
Cooling Degree Days 15 9  
Month to date cooling degree days 114 88  
Year to date cooling degree days 313 222  
Since 1 June cooling degree days 274 204  
Growing Degree Days 30 (Base 50)    
Moisture  
Dew Point 57 °F    
Average Humidity 57    
Maximum Humidity 97    
Minimum Humidity 17    
Precipitation  
Precipitation 0.00 in 0.06 in 0.56 in (2009)
Month to date precipitation 0.40 0.43  
Year to date precipitation 5.82 8.32  
Sea Level Pressure  
Sea Level Pressure 29.78 in    
Wind  
Wind Speed 14 mph (SE)    
Max Wind Speed 26 mph    
Max Gust Speed 33 mph    
Visibility 10 miles    
Events      
T = Trace of Precipitation, MM = Missing Value Source: NWS Daily Summary

Daily Weather History Graph

Daily Weather History Graph

Search for Another Location

Airport or City:

Trip Planner

Search our weather history database for the weather conditions in past years. The results will help you decide how hot, cold, wet, or windy it might be!

Date:

Astronomy

Jul. 11, 2013 Rise Set
Actual Time 5:31 AM MDT 8:32 PM MDT
Civil Twilight 4:57 AM MDT 9:06 PM MDT
Nautical Twilight 4:14 AM MDT 9:49 PM MDT
Astronomical Twilight 3:23 AM MDT 10:39 PM MDT
Moon 8:56 AM MDT (7/11) 10:09 PM MDT (7/11)
Length of Visible Light 16h 08m
Length of Day
15h 01m
Waxing Crescent, 11% of the Moon is Illuminated
Jul 11
Waxing Crescent
Jul 15
First Quarter
Jul 22
Full
Jul 29
Last Quarter
Aug 6
New

Hourly Weather History & Observations

Time (MDT) Temp. Heat Index Dew Point Humidity Pressure Visibility Wind Dir Wind Speed Gust Speed Precip Events Conditions
12:53 AM 70.0 °F - 62.1 °F 76% 29.92 in 10.0 mi ESE 13.8 mph - N/A   Clear
1:53 AM 66.9 °F - 63.0 °F 87% 29.92 in 10.0 mi East 9.2 mph - N/A   Clear
2:53 AM 64.9 °F - 62.1 °F 90% 29.90 in 10.0 mi East 9.2 mph - N/A   Clear
3:53 AM 64.0 °F - 60.1 °F 87% 29.88 in 10.0 mi ESE 9.2 mph - N/A   Clear
4:53 AM 63.0 °F - 59.0 °F 87% 29.88 in 10.0 mi ESE 11.5 mph - N/A   Clear
5:53 AM 61.0 °F - 59.0 °F 93% 29.88 in 10.0 mi East 9.2 mph - N/A   Clear
6:53 AM 64.0 °F - 59.0 °F 84% 29.89 in 10.0 mi ESE 6.9 mph - N/A   Clear
7:53 AM 68.0 °F - 60.1 °F 76% 29.88 in 10.0 mi ESE 6.9 mph - N/A   Clear
8:53 AM 73.0 °F - 59.0 °F 61% 29.87 in 10.0 mi SE 6.9 mph - N/A   Clear
9:53 AM 77.0 °F - 59.0 °F 54% 29.84 in 10.0 mi SE 8.1 mph - N/A   Clear
10:53 AM 81.0 °F 81.6 °F 60.1 °F 49% 29.82 in 10.0 mi SE 9.2 mph - N/A   Clear
11:53 AM 88.0 °F 88.4 °F 62.1 °F 42% 29.79 in 10.0 mi ESE 11.5 mph 17.3 mph N/A   Clear
12:53 PM 96.1 °F 94.1 °F 55.0 °F 25% 29.75 in 10.0 mi SSE 19.6 mph 27.6 mph N/A   Clear
1:53 PM 98.1 °F - 52.0 °F 21% 29.72 in 10.0 mi SSE 18.4 mph 25.3 mph N/A   Clear
2:53 PM 99.0 °F - 50.0 °F 19% 29.69 in 10.0 mi SE 24.2 mph 32.2 mph N/A   Clear
3:53 PM 100.0 °F - 48.0 °F 17% 29.67 in 10.0 mi SE 21.9 mph 33.4 mph N/A   Clear
4:53 PM 97.0 °F - 48.0 °F 19% 29.65 in 10.0 mi SE 18.4 mph 32.2 mph N/A   Clear
5:53 PM 95.0 °F 92.7 °F 54.0 °F 25% 29.64 in 10.0 mi SE 23.0 mph 31.1 mph N/A   Clear
6:53 PM 91.9 °F 89.5 °F 53.1 °F 27% 29.64 in 10.0 mi SE 19.6 mph 31.1 mph N/A   Clear
7:53 PM 89.1 °F - 52.0 °F 28% 29.65 in 10.0 mi SE 17.3 mph 26.5 mph N/A   Clear
8:53 PM 86.0 °F 84.0 °F 53.1 °F 32% 29.66 in 10.0 mi SE 17.3 mph 20.7 mph N/A   Clear
9:53 PM 84.0 °F 82.9 °F 55.0 °F 37% 29.69 in 10.0 mi SE 15.0 mph 21.9 mph N/A   Clear
10:53 PM 82.0 °F 82.0 °F 57.9 °F 44% 29.69 in 10.0 mi SE 15.0 mph - N/A   Clear
11:53 PM 81.0 °F 81.1 °F 57.9 °F 45% 29.68 in 10.0 mi SE 13.8 mph - N/A   Clear